Location: Obergrinzens
(47.2333°N, 11.2667°E)
Time: 14:01:46
(UTC+00:00)

Daily predictions for brighter satellites

Satellite Brightness Start Highest point End
(mag) Time Altitude Azimuth Time Altitude Azimuth Time Altitude Azimuth
Cosmos 968 Rocket 4.0 19:29:48 10° SSW 19:34:54 64° WNW 19:40:01 10° NNE
ERS-1 Rocket 4.4 19:33:29 10° ESE 19:37:28 24° ENE 19:41:26 10° N
Cosmos 405 3.1 19:34:18 10° NNW 19:37:42 72° W 19:41:06 10° S
Cosmos 1151 Rocket 4.0 19:33:35 10° SSW 19:37:44 50° WNW 19:41:54 10° N
Meteor 1-10 Rocket 4.3 19:32:22 10° S 19:37:55 86° W 19:43:36 10° N
Cosmos 389 Rocket 2.7 19:35:00 10° N 19:38:27 53° ENE 19:41:54 10° SSE
Cosmos 1933 Rocket 3.8 19:36:31 10° N 19:40:56 55° ENE 19:45:18 10° SSE
EXPRESS MD2 3.9 19:35:55 10° WNW 19:42:41 65° SSW 19:46:08 10° SE
Cosmos 1515 3.6 19:40:50 10° S 19:44:34 69° E 19:48:20 10° NNE
CZ-4B R/B 1.1 19:41:50 10° NNE 19:45:03 76° ESE 19:48:11 10° S
SPOT 1/Viking Rocket 3.6 19:40:58 10° SSE 19:46:07 79° ENE 19:51:18 10° NNW
Helios 1A Rocket 4.0 19:43:08 10° SE 19:46:37 30° ENE 19:50:08 10° N
Meteor 1-27 Rocket 3.8 19:41:33 10° S 19:47:18 74° E 19:53:11 10° NNE
Cosmos 1633 Rocket 4.2 19:47:01 10° NNW 19:51:11 42° W 19:55:17 10° SSW
Cosmos 2034 Rocket 4.3 19:46:13 10° SSE 19:52:13 50° E 19:58:19 10° NNE
Cosmos 2219 3.8 19:47:02 10° NW 19:52:32 55° WSW 19:57:59 10° S
SJ 16-02 2.0 19:50:10 10° SSE 19:54:06 34° ESE 19:58:05 10° NE
Cosmos 2278 4.4 19:49:33 10° SSE 19:54:34 34° ESE 19:59:39 10° NE
Cosmos 1340 2.6 19:51:12 10° S 19:54:55 79° E 19:58:40 10° NNE
Cosmos 2082 3.7 19:53:47 10° NNW 19:59:27 88° WSW 20:04:59 10° SSE
Meteor 1-11 Rocket 4.3 19:54:24 10° NNW 20:00:19 64° W 20:06:10 10° S
Cosmos 482 Debris 3.9 19:59:11 10° WNW 20:01:50 69° NNE 20:05:53 10° ESE
Cosmos 2263 Rocket 2.6 19:57:05 10° NNW 20:02:34 53° ENE 20:07:29 13° SE
Cosmos 1470 Rocket 4.2 19:58:22 10° NNW 20:02:36 54° W 20:06:48 10° S
Cosmos 1743 3.0 20:02:06 10° NNW 20:05:51 66° W 20:09:35 10° S
Ariane Rocket 3.2 20:00:57 10° S 20:06:00 75° WSW 20:11:07 10° NNW
SPOT 5 3.5 20:06:30 12° SE 20:11:08 50° ENE 20:16:04 10° N
IRAS Rocket 4.4 20:06:02 10° NNE 20:11:41 82° WNW 20:17:19 10° SSW
BREEZE-M DEB (TANK) 2.5 20:09:17 10° W 20:11:53 52° N 20:14:03 10° ENE
Terra 2.7 20:09:04 13° SE 20:12:46 35° ENE 20:17:05 10° N
Resurs 01 Rocket 2.6 20:10:38 10° S 20:14:50 44° W 20:19:05 10° NNW
Cosmos 1346 Rocket 4.3 20:15:00 15° SE 20:16:59 22° E 20:20:05 10° NE
Aureole 1 Rocket 3.3 20:14:03 10° SW 20:17:06 46° WNW 20:20:00 10° N
Cosmos 1515 Rocket 4.2 20:13:25 10° SSW 20:17:42 56° WNW 20:22:04 10° N
Cosmos 1809 Rocket 4.5 20:12:25 10° N 20:18:36 89° E 20:24:46 10° S
Cosmos 2227 Rocket 3.7 20:15:25 10° NW 20:20:18 30° WSW 20:25:09 10° SSW
Cosmos 921 Rocket 3.3 20:17:10 10° NNW 20:21:40 68° WSW 20:25:38 13° S
Cosmos 783 Rocket 4.5 20:22:09 10° NNW 20:27:23 86° WSW 20:31:34 16° SSE
Cosmos 1980 Rocket 2.3 20:24:21 10° SSW 20:30:00 84° WNW 20:35:42 10° NNE
CARTOSAT-1 3.9 20:26:14 12° S 20:30:15 64° W 20:34:33 10° NNW
Cosmos 1869 Rocket 3.6 20:26:29 10° N 20:31:00 87° E 20:34:33 16° S
SL-24 R/B - RUBIN 2 3.9 20:27:07 10° NNW 20:31:26 56° NE 20:34:40 18° ESE
Cosmos 2228 Rocket 3.1 20:29:01 11° S 20:33:19 70° E 20:37:51 10° NNE
Cosmos 1378 3.2 20:34:31 19° SSE 20:36:53 54° E 20:40:28 10° NNE
Cosmos 2344 3.6 20:30:55 10° SW 20:38:24 85° NW 20:46:13 10° NE
Cosmos 2322 Rocket 3.3 20:36:17 18° SE 20:38:43 25° ESE 20:43:10 10° NE
Cosmos 1777 Rocket 3.9 20:34:00 10° SSW 20:39:10 71° ESE 20:44:25 10° NNE
ISS -3.9 20:36:16 10° WNW 20:39:38 82° SSW 20:41:27 25° ESE
Spot 2 Rocket 3.5 20:35:42 17° SSE 20:39:41 90° ENE 20:44:45 10° NNW
Cosmos 2369 4.2 20:34:08 10° SW 20:39:44 64° WNW 20:45:23 10° NNE
Cosmos 1354 Rocket 4.2 20:35:10 10° SSW 20:40:26 75° WNW 20:45:47 10° NNE
SPOT 3 Rocket 4.0 20:36:10 12° S 20:40:55 59° WSW 20:46:02 10° NNW
Cosmos 773 Rocket 4.2 20:36:11 10° NNW 20:41:23 67° WSW 20:45:19 17° S
Cosmos 1844 Rocket 4.1 20:37:09 10° N 20:41:57 28° NE 20:46:18 12° ESE
ATLAS 2AS CENTAUR R/B 2.9 20:35:16 10° SSW 20:43:05 79° SE 20:50:39 10° NE
Okean 1 3.8 20:40:43 10° SSW 20:44:40 61° WNW 20:48:40 10° N
Meteor 2-4 Rocket 3.9 20:40:22 15° S 20:45:07 59° E 20:50:40 10° NNE
Meteor 1-19 Rocket 4.3 20:41:22 10° SSW 20:46:48 75° WNW 20:52:14 10° N
Cosmos 1092 Rocket 3.9 20:41:06 10° N 20:47:19 86° E 20:52:05 18° S
RESURS DK-1 2.4 20:44:42 10° SSW 20:48:49 85° WNW 20:52:59 10° NNE
Cosmos 1697 Rocket 4.4 20:44:00 10° WSW 20:49:10 36° NW 20:54:23 10° NNE
SL-4 R/B 4.1 20:47:06 10° W 20:50:06 18° SW 20:52:09 13° SSW
USA 267 4.4 20:47:26 10° ENE 20:53:28 41° N 20:59:30 10° NW
Cosmos 1634 Rocket 4.0 20:49:58 15° S 20:55:07 71° E 21:01:17 10° NNE
ARIANE 5 R/B 2.7 20:53:39 25° SSE 20:56:14 71° ENE 21:00:44 10° N
Cosmos 1707 Rocket 3.6 20:54:13 22° S 20:57:01 67° E 21:01:24 10° NNE
ATLAS CENTAUR R/B 3.6 20:53:31 10° NNW 20:57:31 24° NE 21:01:24 10° E
Cosmos 44 Rocket 3.2 20:54:10 10° NW 20:58:54 80° SW 21:01:28 27° SSE
Cosmos 2227 4.2 20:58:40 10° NNW 21:04:27 82° WSW 21:07:59 25° SSE
Cosmos 1733 4.2 21:01:53 10° N 21:05:20 32° ENE 21:06:32 26° ESE
Cosmos 158 Rocket 4.1 21:01:08 10° NNW 21:06:15 70° WSW 21:09:24 24° S
ATLAS 3B R/B 2.9 21:00:44 10° NW 21:08:08 81° NE 21:13:24 22° SE
NOSS 2-1 (E) 2.8 21:08:10 36° S 21:09:09 54° SE 21:12:19 10° NE
CSL-04 DEB 4.4 21:07:14 10° NNE 21:11:10 58° ESE 21:12:49 32° SSE
Cosmos 1975 3.2 21:07:20 10° NNW 21:11:22 59° W 21:13:33 25° SSW
Cosmos 2026 Rocket 4.1 21:06:24 10° NNW 21:12:33 73° W 21:17:00 20° S
USA 81 4.0 21:09:01 21° S 21:12:39 88° E 21:17:58 10° N
ERS-1 Rocket 3.5 21:12:32 19° S 21:15:55 52° W 21:20:52 10° NNW
SL-16 R/B 2.2 21:13:28 18° S 21:17:45 66° ESE 21:23:23 10° NNE
Meteor 1-4 Rocket 2.9 21:15:23 10° N 21:18:46 48° ENE 21:19:36 38° ESE
CZ-4C R/B 4.1 21:13:35 10° NNW 21:19:44 35° NNE 21:26:58 10° E
Cosmos 1538 Rocket 4.1 21:16:23 10° NNW 21:21:38 72° WSW 21:24:18 29° S
CZ-2C R/B 4.4 21:18:53 10° N 21:23:34 58° WNW 21:27:47 13° SSW
GENESIS II 4.1 21:20:46 12° SW 21:24:15 84° NW 21:28:12 10° NE
Meteor 2-10 4.4 21:20:23 10° N 21:25:31 50° ENE 21:27:49 29° SE
Cosmos 1733 Rocket 3.2 21:21:13 10° NNW 21:25:41 74° W 21:27:44 31° S
Geosat 3.9 21:28:35 32° SSE 21:31:00 88° ENE 21:36:04 10° NNW
OE (NEXTSAT) 4.0 21:28:21 10° W 21:31:39 73° S 21:32:08 59° ESE
SAR-Lupe-4 3.5 21:28:36 10° NNE 21:32:13 90° NNW 21:33:21 42° SSW
SJ 16-02 3.4 21:28:59 10° WSW 21:32:42 27° WNW 21:36:28 10° N
Cosmos 1356 3.3 21:35:10 58° SE 21:35:26 61° E 21:38:42 10° NNE
Cosmos 1908 Rocket 3.8 21:33:02 10° N 21:37:18 53° ENE 21:38:37 38° SE
Cosmos 923 Rocket 4.1 21:34:26 10° NNW 21:39:48 75° ENE 21:42:10 34° SE
Cosmos 1862 Rocket 3.7 21:37:31 28° SSW 21:39:49 71° W 21:44:19 10° N
Cosmos 2360 Rocket 2.4 21:40:42 33° SSE 21:42:50 50° ESE 21:48:17 10° NE
Cosmos 1937 Rocket 4.2 21:42:39 32° SE 21:43:56 37° ESE 21:48:46 10° NE
Cosmos 1726 2.8 21:41:06 10° N 21:44:36 40° ENE 21:45:09 37° E
Cosmos 2242 Rocket 4.4 21:43:56 32° ESE 21:44:55 36° E 21:49:05 10° NNE
Cosmos 2263 Rocket 3.7 21:41:36 10° NW 21:46:10 26° WSW 21:49:11 17° SSW
ALOS 2 4.0 21:44:37 21° E 21:46:16 27° ENE 21:50:00 10° N
Meteor 1-13 Rocket 4.1 21:44:30 32° S 21:47:08 74° E 21:52:41 10° NNE
Cosmos 2266 Rocket 4.0 21:42:11 10° N 21:48:26 68° ENE 21:51:20 33° SSE
NOSS 2-1 (C) 3.8 21:46:45 12° WSW 21:49:36 46° NW 21:52:46 10° NNE
Terra 3.2 21:47:57 19° SW 21:50:33 30° W 21:54:46 10° NNW
Cosmos 1441 Rocket 3.5 21:51:03 37° SW 21:52:17 60° WNW 21:55:59 10° N
Cosmos 1346 Rocket 4.3 21:50:23 16° SW 21:53:04 33° WNW 21:56:44 10° N
Cosmos 2279 Rocket 4.3 21:53:30 21° SSW 21:57:44 64° WNW 22:03:56 10° N
USA 215 3.4 21:53:40 10° ENE 22:00:02 50° SE 22:03:42 25° SSW
NOSS 2-1 (D) 4.3 21:57:05 10° WSW 22:00:05 36° NW 22:03:11 10° NNE
Cosmos 2112 Rocket 4.1 21:55:01 10° NNW 22:00:23 73° ENE 22:02:27 38° SE
Cosmos 990 Rocket 4.0 21:57:54 27° SSW 22:00:49 82° WNW 22:06:07 10° NNE
Cosmos 1680 Rocket 3.5 21:56:07 10° NNW 22:01:28 85° ENE 22:03:26 40° SSE
Cosmos 2278 Rocket 4.3 21:57:24 10° N 22:01:35 20° NE 22:05:44 10° E
Cosmos 1842 3.9 22:03:47 39° ESE 22:04:00 39° E 22:07:38 10° NNE
Meteor 1-12 Rocket 4.3 22:00:25 10° NNW 22:06:23 82° W 22:08:53 37° S
Cosmos 1066 Rocket 4.5 22:05:06 26° SSW 22:08:24 67° WNW 22:14:03 10° N
ADEOS Rocket 3.8 22:05:31 23° ESE 22:08:28 38° ENE 22:14:00 10° N
Spot 4 3.9 22:07:13 42° SE 22:08:46 72° ENE 22:13:34 10° N
Cosmos 1818 3.5 22:04:26 10° NW 22:09:56 84° NE 22:12:08 38° SE
Iridium 4 Rocket 3.2 22:07:37 10° N 22:12:13 89° E 22:13:44 45° S
Cosmos 1898 Rocket 3.5 22:11:50 35° SSW 22:14:10 89° ESE 22:19:31 10° NNE
ISS -1.1 22:13:53 10° W 22:14:21 12° WSW 22:14:21 12° WSW
Cosmos 1900 4.3 22:15:19 41° SSW 22:17:05 74° ESE 22:22:13 10° NE
Okean 1-7 3.1 22:17:25 46° SSW 22:18:38 75° W 22:23:01 10° N
Cosmos 2322 Rocket 2.7 22:18:02 17° SW 22:22:21 57° WNW 22:27:54 10° NNE
Okean 3 3.4 22:25:02 56° SSW 22:25:54 82° W 22:30:10 10° N
Cosmos 1844 Rocket 2.9 22:20:43 10° NW 22:26:11 57° WSW 22:27:57 40° SSW
Cosmos 2322 4.1 22:25:29 39° SE 22:26:51 46° ESE 22:32:18 10° NE
Cosmos 2333 Rocket 2.2 22:25:18 42° S 22:27:04 63° ESE 22:32:41 10° NNE
H-2A R/B 3.3 22:27:42 10° NNE 22:31:49 76° ESE 22:32:20 64° SSE
Cosmos 1461 3.6 22:28:23 10° NNW 22:32:25 48° NE 22:33:55 33° E
BREEZE-M DEB (TANK) 3.9 22:30:24 10° W 22:31:52 24° WSW 22:31:52 24° WSW
ATLAS 2AS CENTAUR R/B 4.4 22:27:39 10° W 22:34:45 37° NNW 22:41:35 10° NE
USA 267 3.4 22:29:45 11° ESE 22:35:59 72° NNE 22:42:30 10° NW
Meteor 1-23 Rocket 4.3 22:34:01 36° SSW 22:36:30 78° W 22:42:22 10° N
ATLAS CENTAUR R/B 1.6 22:31:59 10° NW 22:36:52 77° SW 22:37:50 55° SSE
Cosmos 1766 4.2 22:39:16 10° NNW 22:42:53 35° W 22:43:23 34° WSW
Cosmos 1553 Rocket 4.5 22:43:37 33° SE 22:45:47 46° E 22:51:40 10° NNE
Cosmos 2219 Rocket 2.1 22:44:47 45° S 22:46:25 67° ESE 22:51:59 10° NNE
Nadezhda 2 Rocket 4.5 22:42:17 10° N 22:48:29 73° E 22:50:51 39° SSE
Cosmos 1844 4.3 22:44:20 10° NW 22:49:51 46° WSW 22:51:27 37° SSW
Cosmos 2221 Rocket 4.2 22:51:06 40° ESE 22:51:40 42° E 22:55:50 10° NNE
Cosmos 372 Rocket 3.9 22:51:17 43° SSW 22:52:59 82° WNW 22:58:11 10° NNE
ATLAS 3B R/B 4.1 22:52:16 10° WNW 22:58:16 27° WSW 23:00:38 23° SW
Cosmos 1707 2.5 23:00:36 81° S 23:00:48 90° NW 23:04:42 10° N
Cosmos 1378 Rocket 4.5 23:00:50 33° ESE 23:01:29 35° E 23:05:31 10° NNE
SL-16 R/B 4.1 22:57:41 10° WSW 23:02:21 26° NW 23:07:03 10° N
NOSS 3-1 (A) 4.1 22:55:06 10° NW 23:02:29 80° NE 23:08:57 20° SE
Cosmos 1782 Rocket 4.5 23:00:08 10° NNW 23:04:06 35° W 23:04:50 33° WSW
Cosmos 1125 Rocket 4.4 23:03:17 30° ESE 23:04:12 32° E 23:08:46 10° NE
ERS-2 2.3 23:03:05 10° N 23:06:40 58° WNW 23:06:52 57° W
Okean 2 3.3 23:06:39 65° SE 23:06:58 69° E 23:11:03 10° NNE
CZ-4C R/B 2.9 23:01:52 10° NW 23:09:06 87° SW 23:14:17 26° SE
NOSS 3-1 (C) 4.1 23:02:20 10° NW 23:09:46 67° SW 23:14:03 33° SSE
USA 290 3.1 23:10:46 44° ENE 23:10:46 44° ENE 23:13:14 10° NNE
Cosmos 1238 Rocket 3.0 23:09:31 10° N 23:11:57 46° NE 23:11:57 46° NE
Gblst 52 Del rocket 4.5 23:09:27 10° WSW 23:15:46 72° NNW 23:21:27 10° ENE
Cosmos 2237 Rocket 3.2 23:14:56 29° SE 23:16:12 32° ESE 23:21:11 10° NE
KORONAS-FOTON 3.6 23:16:49 83° SE 23:16:55 85° E 23:20:44 10° N
Cosmos 1470 3.7 23:15:24 10° NNW 23:18:55 34° W 23:19:01 34° W
Cosmos 1726 4.4 23:17:06 10° NW 23:19:14 15° W 23:19:26 15° W
COSMOS 2428 2.6 23:17:53 44° SSW 23:19:49 85° ESE 23:25:32 10° NNE
Cosmos 1300 Rocket 4.1 23:16:10 10° NNW 23:20:18 44° W 23:20:51 41° WSW
NOSS 2-2 (D) 4.4 23:15:44 10° NW 23:20:40 71° NE 23:25:34 19° SE
Cosmos 1745 Rocket 4.2 23:16:06 10° N 23:22:19 65° ENE 23:25:01 34° SSE
ALOS 2 3.5 23:22:00 33° WSW 23:22:29 34° W 23:26:31 10° NNW
PSLV R/B 3.6 23:18:31 10° NNE 23:22:55 71° ESE 23:23:40 58° SSE
Cosmos 2151 Rocket 3.4 23:18:49 10° N 23:23:14 89° W 23:23:57 63° S
Resurs 1-4 Rocket 4.4 23:21:20 10° ENE 23:23:24 12° E 23:25:27 10° ESE
USA 305 3.7 23:26:44 37° ESE 23:26:44 37° ESE 23:29:52 10° ENE
Cosmos 1242 Rocket 2.8 23:22:47 10° NNW 23:26:07 55° W 23:26:07 55° W
Cosmos 2360 Rocket 3.7 23:22:25 12° WSW 23:27:03 32° NW 23:32:06 10° NNE
Okean 2 Rocket 3.1 23:22:48 10° NNW 23:27:19 72° W 23:28:05 58° SSW
Cosmos 405 Rocket 2.8 23:28:20 60° ESE 23:28:22 60° E 23:32:07 10° NNE
Cosmos 1943 Rocket 4.1 23:25:40 10° N 23:30:23 26° NE 23:35:05 10° ESE
In-Cosmos 22 4.3 23:29:32 41° SW 23:31:27 68° WNW 23:36:55 10° N
Cosmos 1437 Rocket 2.8 23:29:32 10° N 23:33:15 62° ENE 23:33:33 59° ESE
Nimbus 7 Rocket 4.3 23:28:05 10° NNE 23:34:00 90° W 23:36:12 41° SSW
Cosmos 1908 3.0 23:30:56 10° NNW 23:34:43 75° W 23:34:48 75° WSW
Cosmos 1867 3.6 23:33:43 38° SW 23:35:53 81° NW 23:41:25 10° NE
Cosmos 2298 Rocket 4.2 23:34:33 45° SSE 23:35:55 61° ESE 23:41:10 10° NNE
Cosmos 1626 2.1 23:37:36 68° W 23:37:40 68° W 23:41:20 10° N
GP-B 4.4 23:36:38 10° NNE 23:40:39 32° E 23:42:04 26° ESE
USA 215 3.6 23:36:42 10° NE 23:43:10 64° NNW 23:49:38 10° WSW
Cosmos 1953 2.2 23:40:13 10° N 23:44:15 76° E 23:44:46 64° SE
Cosmos 2278 Rocket 2.1 23:40:45 10° NNW 23:46:28 89° WSW 23:48:51 37° SSE
Cosmos 468 4.5 23:42:28 10° NNW 23:47:40 68° WSW 23:49:02 47° S
Cosmos 1674 3.4 23:50:45 38° W 23:51:05 39° WNW 23:54:38 10° N
ADEOS Rocket 3.7 23:52:27 30° SW 23:54:03 36° W 23:59:31 10° NNW
